QPF
0.00 0.00 0.00 0.00 0.00 0.00 0.00 0.00 0.00 0.00 0.00 0.00 0.01 0.02 0.01 0.00 0.00 0.00 0.00 0.00 0.00 0.00 0.00 0.00 0.00 0.00 0.00 0.00 0.00 0.00 0.00 0.00 0.00
0.00 0.00 0.00 0.00 0.00 0.00 0.00 0.00 0.00 0.01 0.00 0.00 0.00 0.00 0.00 0.00 0.00 0.00 0.00 0.00 0.00 0.00 0.00 0.00 0.00 0.00 0.00 0.00 0.00 0.00 0.00 0.00 0.00
0.00 0.00 0.00 0.00 0.00 0.00 0.00 0.00 0.01 0.00 0.00 0.00 0.00 0.00 0.00 0.00 0.00 0.00 0.00 0.00 0.00 0.02 0.02 0.01 0.02 0.01 0.00 0.00 0.00 0.00 0.00 0.00 0.00
0.00 0.00 0.00 0.00 0.00 0.00 0.00 0.00 0.00 0.00 0.00 0.00 0.00 0.00 0.00 0.00 0.00 0.00 0.00 0.00 0.00 0.02 0.02 0.01 0.01 0.00 0.00 0.00 0.00 0.00 0.00 0.00 0.00
0.00 0.00 0.00 0.00 0.00 0.00 0.00 0.00 0.00 0.00 0.00 0.00 0.00 0.00 0.00 0.00 0.00 0.01 0.03 0.06 0.04 0.02 0.01 0.00 0.00 0.00 0.00 0.00 0.00 0.00 0.00 0.00 0.00
0.00 0.00 0.00 0.00 0.00 0.00 0.00 0.00 0.00 0.00 0.00 0.00 0.00 0.00 0.00 0.00 0.00 0.00 0.01 0.02 0.01 0.00 0.00 0.00 0.00 0.00 0.00 0.00 0.00 0.00 0.00 0.00 0.00
0.00 0.00 0.00 0.00 0.00 0.00 0.00 0.00 0.00 0.00 0.00 0.00 0.00 0.00 0.00 0.00 0.00 0.00 0.00 0.00 0.00 0.00 0.00 0.00 0.00 0.00 0.00 0.00 0.00 0.00 0.00 0.00 0.00
0.00 0.00 0.00 0.00 0.00 0.00 0.00 0.00 0.00 0.00 0.00 0.00 0.00 0.00 0.00 0.00 0.00 0.00 0.00 0.00 0.00 0.00 0.00 0.00 0.00 0.00 0.00 0.00 0.00 0.00 0.00 0.00 0.00
0.00 0.00 0.00 0.00 0.00 0.00 0.00 0.00 0.00 0.00 0.00 0.00 0.00 0.00 0.00 0.00 0.00 0.00 0.00 0.00 0.00 0.00 0.00 0.00 0.00 0.00 0.00 0.00 0.00 0.00 0.00 0.00 0.00
0.00 0.00 0.00 0.00 0.00 0.00 0.00 0.00 0.00 0.00 0.00 0.00 0.00 0.00 0.00 0.00 0.00 0.00 0.00 0.00 0.00 0.00 0.00 0.00 0.00 0.00 0.00 0.00 0.00 0.00 0.00 0.00 0.00
0.00 0.00 0.00 0.00 0.00 0.00 0.00 0.00 0.00 0.00 0.00 0.00 0.00 0.00 0.00 0.00 0.00 0.00 0.00 0.00 0.00 0.00 0.00 0.00 0.00 0.00 0.00 0.00 0.00 0.00 0.00 0.00 0.00
0.00 0.00 0.00 0.00 0.00 0.00 0.00 0.00 0.00 0.00 0.00 0.00 0.00 0.00 0.00 0.00 0.00 0.00 0.00 0.00 0.00 0.00 0.00 0.00 0.00 0.00 0.00 0.00 0.00 0.00 0.00 0.00 0.00
0.00 0.00 0.00 0.00 0.00 0.00 0.00 0.00 0.00 0.00 0.00 0.00 0.00 0.00 0.00 0.00 0.00 0.00 0.00 0.00 0.00 0.00 0.00 0.00 0.00 0.00 0.00 0.00 0.00 0.00 0.00 0.00 0.00
0.00 0.00 0.00 0.00 0.00 0.00 0.00 0.00 0.00 0.00 0.00 0.00 0.00 0.00 0.00 0.00 0.00 0.00 0.00 0.00 0.00 0.00 0.00 0.00 0.00 0.00 0.00 0.00 0.00 0.00 0.00 0.00 0.00
0.00 0.00 0.00 0.00 0.00 0.00 0.00 0.00 0.00 0.00 0.00 0.00 0.00 0.00 0.00 0.00 0.00 0.00 0.00 0.00 0.00 0.00 0.00 0.00 0.00 0.00 0.00 0.00 0.00 0.00 0.00 0.00 0.00
0.00 0.00 0.00 0.00 0.00 0.00 0.00 0.00 0.00 0.00 0.00 0.00 0.00 0.00 0.00 0.00 0.00 0.00 0.00 0.00 0.00 0.00 0.00 0.00 0.00 0.00 0.00 0.00 0.00 0.00 0.00 0.00 0.00
0.00 0.00 0.00 0.00 0.00 0.00 0.00 0.00 0.00 0.00 0.00 0.00 0.00 0.00 0.00 0.00 0.00 0.00 0.00 0.00 0.00 0.00 0.00 0.00 0.00 0.00 0.00 0.00 0.00 0.00 0.00 0.00 0.00
0.00 0.00 0.00 0.00 0.00 0.00 0.00 0.00 0.00 0.00 0.00 0.00 0.00 0.00 0.00 0.00 0.00 0.00 0.00 0.00 0.00 0.00 0.00 0.00 0.00 0.00 0.00 0.00 0.00 0.00 0.00 0.00 0.00
0.00 0.00 0.00 0.00 0.00 0.00 0.00 0.00 0.00 0.00 0.00 0.00 0.00 0.00 0.00 0.00 0.00 0.00 0.00 0.00 0.00 0.00 0.00 0.00 0.00 0.00 0.00 0.00 0.00 0.00 0.00 0.00 0.00
0.00 0.00 0.00 0.00 0.00 0.00 0.00 0.00 0.00 0.00 0.00 0.00 0.00 0.00 0.00 0.00 0.00 0.00 0.00 0.00 0.00 0.00 0.00 0.00 0.00 0.00 0.00 0.00 0.00 0.00 0.00 0.00 0.00
MSLP
1016.29 1016.68 1016.97 1017.27 1017.48 1017.60 1017.69 1017.77 1017.93 1018.05 1018.35 1018.53 1018.66 1018.96 1019.15 1019.35 1019.62 1019.72 1019.89 1020.17 1020.22 1020.36 1020.45 1020.62 1020.73 1020.88 1021.09 1021.22 1021.34 1021.31 1021.26 1021.27 1021.27
1016.36 1016.89 1017.27 1017.41 1017.51 1017.72 1017.69 1017.82 1017.89 1018.31 1018.51 1018.71 1018.98 1019.12 1019.32 1019.51 1019.91 1020.05 1020.20 1020.29 1020.40 1020.44 1020.67 1020.88 1021.08 1021.30 1021.54 1021.63 1021.79 1021.69 1021.65 1021.66 1021.69
1016.66 1017.00 1017.35 1017.50 1017.59 1017.60 1017.74 1017.93 1018.15 1018.66 1018.83 1019.02 1019.11 1019.15 1019.52 1019.67 1020.14 1020.50 1020.50 1020.37 1020.33 1020.64 1020.97 1021.14 1021.43 1021.67 1022.05 1022.12 1022.18 1022.14 1022.17 1022.20 1022.19
1016.87 1017.17 1017.23 1017.49 1017.61 1017.56 1017.83 1018.10 1018.42 1018.97 1019.13 1019.23 1019.32 1019.38 1019.65 1020.15 1020.53 1020.63 1020.73 1020.61 1020.71 1021.04 1021.22 1021.58 1021.84 1022.13 1022.36 1022.45 1022.53 1022.61 1022.71 1022.76 1022.74
1017.04 1017.32 1017.41 1017.41 1017.59 1017.71 1017.93 1018.33 1018.85 1019.10 1019.24 1019.40 1019.53 1019.82 1020.11 1020.56 1020.79 1020.98 1020.90 1020.89 1021.00 1021.42 1021.79 1022.02 1022.38 1022.52 1022.73 1022.94 1023.10 1023.20 1023.27 1023.29 1023.22
1017.24 1017.53 1017.63 1017.66 1017.77 1017.92 1018.24 1018.55 1019.04 1019.25 1019.39 1019.58 1020.04 1020.25 1020.61 1020.94 1021.19 1021.34 1021.38 1021.47 1021.63 1021.93 1022.24 1022.72 1022.89 1022.96 1023.18 1023.42 1023.39 1023.46 1023.56 1023.65 1023.62
1017.42 1017.55 1017.73 1017.94 1018.05 1018.27 1018.56 1019.02 1019.33 1019.45 1019.71 1019.95 1020.35 1020.68 1021.03 1021.25 1021.54 1021.65 1021.84 1021.89 1022.08 1022.32 1022.76 1022.98 1023.22 1023.35 1023.53 1023.65 1023.67 1023.78 1023.89 1023.94 1023.91
1017.53 1017.61 1017.90 1018.14 1018.31 1018.58 1019.08 1019.35 1019.64 1019.81 1019.95 1020.28 1020.71 1020.99 1021.20 1021.71 1021.94 1021.98 1022.23 1022.31 1022.61 1022.91 1023.29 1023.40 1023.60 1023.75 1023.88 1023.97 1024.03 1024.13 1024.19 1024.23 1024.22
1017.65 1017.95 1018.03 1018.35 1018.58 1018.95 1019.44 1019.74 1019.75 1019.90 1020.12 1020.63 1021.00 1021.28 1021.56 1021.91 1022.34 1022.55 1022.62 1022.86 1023.09 1023.27 1023.55 1023.78 1023.99 1024.10 1024.22 1024.38 1024.50 1024.54 1024.54 1024.52 1024.46
1017.45 1017.86 1018.21 1018.36 1018.74 1019.01 1019.65 1019.89 1019.93 1020.14 1020.30 1020.94 1021.07 1021.53 1021.97 1022.32 1022.69 1022.89 1023.03 1023.20 1023.35 1023.50 1023.75 1024.10 1024.29 1024.46 1024.59 1024.66 1024.73 1024.79 1024.82 1024.79 1024.78
1017.15 1017.64 1018.13 1018.54 1018.72 1019.10 1019.57 1019.97 1020.19 1020.32 1020.42 1021.00 1021.37 1021.82 1022.29 1022.73 1023.08 1023.39 1023.50 1023.84 1023.80 1023.93 1024.21 1024.51 1024.58 1024.68 1024.79 1024.87 1024.92 1024.99 1025.05 1025.08 1025.05
1016.75 1017.34 1017.89 1018.30 1018.60 1019.10 1019.46 1019.78 1020.04 1020.58 1020.70 1021.38 1021.66 1022.10 1022.54 1023.05 1023.56 1024.00 1024.29 1024.51 1024.45 1024.60 1024.81 1024.91 1024.96 1025.00 1025.07 1025.15 1025.25 1025.37 1025.41 1025.42 1025.40
1016.36 1017.06 1017.61 1018.11 1018.46 1019.04 1019.61 1019.83 1020.42 1020.84 1021.37 1021.95 1022.23 1022.42 1022.84 1023.34 1023.86 1024.33 1024.72 1025.06 1025.24 1025.28 1025.38 1025.41 1025.44 1025.38 1025.32 1025.39 1025.58 1025.78 1025.79 1025.73 1025.65
1016.23 1016.72 1017.35 1017.80 1018.39 1018.87 1019.42 1020.17 1020.36 1021.15 1021.79 1022.40 1022.92 1023.15 1023.37 1023.84 1024.29 1024.80 1025.13 1025.37 1025.67 1025.83 1025.85 1025.94 1025.90 1025.77 1025.78 1025.87 1025.96 1026.04 1026.03 1025.95 1025.83
1016.33 1016.93 1017.34 1017.80 1018.38 1018.99 1019.38 1020.18 1020.69 1021.18 1021.76 1022.59 1023.51 1023.86 1024.03 1024.22 1024.71 1025.15 1025.30 1025.65 1025.92 1026.05 1026.27 1026.41 1026.37 1026.36 1026.33 1026.38 1026.40 1026.37 1026.25 1026.09 1025.86
1016.18 1017.08 1017.61 1017.99 1018.39 1019.05 1019.49 1020.22 1020.93 1021.70 1021.92 1022.67 1023.90 1024.56 1024.62 1024.76 1025.00 1025.25 1025.67 1025.82 1025.98 1026.21 1026.45 1026.64 1026.73 1026.80 1026.84 1026.82 1026.92 1026.70 1026.48 1026.26 1025.90
1016.22 1016.47 1017.80 1018.09 1018.56 1019.26 1019.74 1019.99 1021.20 1021.77 1021.71 1022.74 1023.77 1025.03 1025.42 1025.34 1025.28 1025.18 1025.31 1025.71 1025.87 1026.16 1026.40 1026.63 1026.90 1027.14 1027.31 1027.29 1027.31 1027.20 1026.87 1026.55 1026.14
1015.85 1016.41 1017.26 1018.07 1018.48 1019.23 1019.68 1019.88 1020.46 1021.58 1021.97 1022.02 1022.92 1024.63 1024.96 1025.35 1025.70 1025.67 1025.62 1025.81 1026.07 1026.23 1026.42 1026.76 1027.00 1027.34 1027.66 1027.77 1027.84 1027.44 1027.08 1026.71 1026.46
1016.49 1015.83 1017.46 1017.54 1018.26 1019.28 1019.70 1019.59 1020.09 1020.83 1021.78 1022.38 1022.46 1022.69 1023.12 1024.65 1025.87 1025.83 1025.82 1025.91 1026.14 1026.43 1026.61 1026.82 1027.04 1027.23 1027.43 1027.73 1027.76 1027.51 1027.21 1026.82 1026.64
1015.70 1015.93 1016.96 1017.40 1018.22 1019.25 1019.35 1019.68 1020.00 1020.53 1021.41 1022.08 1022.79 1023.11 1023.22 1023.63 1024.72 1025.64 1026.03 1026.10 1026.07 1026.22 1026.51 1026.88 1027.41 1027.23 1027.40 1027.83 1027.50 1027.42 1027.22 1027.06 1026.69
Thickness
5717 5716 5714 5712 5711 5711 5710 5710 5709 5708 5706 5705 5704 5702 5701 5699 5698 5697 5695 5693 5692 5691 5689 5688 5687 5685 5684 5683 5683 5683 5683 5683 5682
5714 5712 5710 5710 5710 5709 5709 5709 5708 5706 5704 5703 5702 5701 5699 5698 5696 5694 5692 5691 5689 5689 5687 5686 5684 5682 5680 5679 5678 5679 5678 5678 5677
5709 5708 5707 5707 5707 5707 5707 5706 5704 5701 5700 5700 5700 5700 5697 5696 5693 5690 5689 5688 5688 5686 5683 5682 5680 5678 5675 5674 5673 5673 5672 5671 5670
5705 5705 5705 5704 5704 5705 5704 5702 5700 5697 5696 5696 5697 5697 5695 5691 5688 5686 5686 5685 5683 5680 5679 5676 5675 5673 5670 5670 5668 5667 5665 5664 5663
5701 5700 5701 5702 5702 5702 5701 5699 5695 5694 5693 5693 5693 5692 5689 5686 5683 5682 5681 5680 5678 5675 5672 5671 5668 5666 5665 5663 5661 5659 5658 5656 5656
5695 5695 5695 5696 5696 5697 5696 5694 5691 5690 5690 5688 5687 5685 5681 5681 5678 5675 5674 5673 5671 5668 5666 5662 5661 5660 5658 5656 5655 5654 5651 5650 5649
5688 5689 5689 5689 5690 5690 5689 5687 5686 5687 5686 5684 5683 5679 5675 5674 5671 5669 5667 5666 5664 5663 5659 5657 5656 5654 5652 5650 5649 5648 5646 5644 5643
5683 5684 5684 5684 5684 5683 5682 5681 5681 5682 5681 5679 5677 5673 5670 5667 5665 5662 5659 5659 5657 5655 5652 5651 5649 5648 5646 5645 5643 5641 5639 5638 5637
5676 5676 5678 5678 5678 5677 5676 5676 5677 5676 5675 5673 5671 5667 5664 5662 5658 5655 5654 5652 5650 5649 5647 5644 5642 5641 5639 5637 5634 5633 5632 5631 5630
5670 5670 5670 5672 5670 5671 5669 5669 5670 5670 5669 5666 5666 5662 5658 5655 5652 5649 5647 5646 5645 5643 5641 5638 5636 5633 5631 5629 5627 5626 5624 5623 5621
5665 5664 5663 5662 5663 5664 5663 5662 5662 5663 5662 5661 5659 5655 5651 5649 5645 5642 5641 5637 5637 5636 5633 5630 5628 5626 5624 5622 5621 5619 5616 5614 5612
5660 5657 5657 5656 5657 5656 5656 5656 5656 5653 5654 5653 5651 5648 5644 5641 5638 5634 5632 5629 5628 5626 5623 5621 5620 5618 5616 5614 5612 5610 5608 5605 5602
5651 5650 5649 5649 5649 5649 5647 5648 5645 5644 5642 5641 5641 5640 5636 5633 5630 5627 5624 5621 5619 5616 5614 5613 5611 5610 5608 5606 5603 5599 5596 5594 5591
5643 5643 5641 5642 5642 5640 5640 5636 5638 5634 5631 5630 5629 5628 5627 5623 5620 5618 5615 5612 5610 5608 5605 5603 5602 5601 5599 5596 5593 5589 5586 5583 5581
5632 5631 5632 5632 5632 5631 5632 5628 5627 5626 5625 5622 5616 5615 5615 5613 5611 5608 5606 5604 5601 5600 5597 5595 5592 5589 5588 5585 5582 5579 5576 5574 5571
5620 5619 5618 5620 5622 5620 5620 5617 5616 5614 5616 5610 5603 5600 5602 5603 5601 5599 5595 5595 5594 5591 5588 5585 5582 5578 5576 5573 5571 5568 5565 5562 5561
5602 5606 5603 5606 5609 5607 5608 5611 5604 5603 5608 5601 5595 5589 5588 5590 5591 5593 5591 5588 5585 5582 5579 5575 5571 5568 5565 5561 5557 5554 5551 5548 5547
5593 5595 5594 5595 5597 5597 5598 5601 5601 5594 5594 5598 5593 5579 5580 5578 5579 5580 5580 5579 5576 5573 5570 5565 5560 5556 5551 5546 5542 5541 5539 5537 5533
5577 5589 5580 5589 5588 5585 5587 5595 5592 5591 5589 5585 5589 5589 5588 5575 5568 5569 5568 5567 5565 5562 5558 5554 5549 5546 5540 5534 5530 5528 5525 5521 5518
5572 5577 5576 5578 5576 5571 5578 5581 5585 5584 5581 5578 5576 5577 5577 5576 5567 5558 5554 5554 5553 5550 5547 5541 5532 5530 5527 5523 5519 5516 5511 5506 5504